Location: Rio Negrinho
(26.2394°S, 49.4999°W)
Time: 02:31:40
(UTC+00:00)

SEDSat Delta rocket - Pass Details

Date: 08 October 2020
Orbit: 533 x 1000 km, 31.4° (Epoch: 20 October)

Event Time Altitude Azimuth Distance (km) Brightness Sun altitude
Rises 22:01:02 0° 267° (W) 3,611 9.1 -9.6°
Reaches altitude 10° 22:03:53 10° 262° (W) 2,611 7.9 -10.2°
Maximum altitude 22:10:00 53° 186° (S) 1,033 4.3 -11.5°
Enters shadow 22:15:04 12° 110° (ESE) 2,190 5.4 -12.6°
